RH
78 72 85 87 86 86 81 86 100 90 74 72 74 76 74 76 76 76 82 78 70 85 81 90 88 94 93 86 90 94 92 87 75 82 92 91 94 94 92 69 79 81 91
83 74 78 82 83 81 82 87 87 78 77 75 75 68 60 60 70 76 80 84 87 88 84 90 93 97 89 90 80 88 82 80 74 81 89 75 88 94 91 67 77 88 92
76 71 64 79 81 79 78 80 82 78 83 85 73 67 65 75 85 84 80 87 89 90 94 92 92 94 95 85 74 57 71 79 85 86 88 88 96 92 88 73 91 93 92
70 69 67 73 81 80 81 80 80 77 82 82 76 69 65 75 84 77 75 86 95 96 80 88 90 88 80 78 68 52 63 75 76 68 75 91 97 92 88 81 93 92 93
62 76 82 82 86 84 81 82 83 82 82 88 89 82 72 74 89 82 75 81 92 93 94 80 68 78 79 73 87 89 72 56 61 60 85 96 94 90 84 92 92 89 78
58 66 92 90 87 89 84 82 83 84 84 84 85 88 85 77 82 88 85 80 87 90 93 90 71 62 71 74 84 89 86 78 68 82 86 86 88 82 92 60 56 81 96
34 41 56 90 92 90 91 85 84 83 84 84 84 86 87 86 78 80 89 82 77 78 91 85 71 54 65 69 86 88 86 85 85 83 79 74 68 75 90 80 80 95 97
19 20 24 40 66 86 93 92 88 86 83 83 85 84 84 85 87 84 68 86 87 81 84 86 83 67 55 56 86 87 80 74 81 86 84 75 71 77 89 94 95 95 96
18 17 18 20 26 38 56 85 94 91 87 86 84 83 86 86 87 87 86 75 80 88 85 87 87 82 56 52 74 87 77 70 72 79 84 76 69 66 88 94 94 94 94
22 23 23 22 20 21 24 33 59 84 94 90 88 86 86 86 88 89 88 85 78 72 87 87 88 81 73 55 55 83 78 75 68 69 72 68 64 62 87 93 95 93 93
26 28 29 28 27 25 23 23 24 35 50 72 91 91 88 87 84 87 90 86 84 79 71 88 89 87 74 64 55 59 79 83 72 66 64 63 66 65 90 91 96 93 93
38 36 38 36 34 32 31 28 26 26 26 31 37 58 91 93 89 86 85 87 88 86 81 73 90 91 90 93 72 56 78 75 66 66 62 57 62 65 90 90 95 96 94
50 45 42 41 41 41 39 38 35 32 32 30 29 29 34 62 97 96 92 87 89 91 96 91 96 98 100 99 81 68 70 73 56 49 50 56 56 61 78 94 90 94 95
49 46 44 41 40 40 40 41 41 40 38 36 35 33 33 33 36 92 100 95 90 88 97 97 98 96 97 99 98 92 78 74 74 56 48 40 49 58 66 92 88 86 96
51 48 46 45 44 44 42 40 40 40 40 40 40 40 41 37 46 61 58 94 100 99 98 100 96 99 99 99 99 100 98 88 70 63 56 48 40 47 62 74 93 95 96
53 53 55 54 56 57 55 53 51 48 44 41 40 41 43 46 43 44 69 60 62 96 100 100 100 100 100 100 99 99 99 99 94 71 57 53 49 41 54 61 74 93 92
53 58 60 62 64 67 69 69 67 62 61 55 48 44 44 47 48 47 49 67 74 64 75 96 100 100 100 100 99 98 100 99 100 96 76 59 52 50 47 57 59 64 76
57 62 63 68 73 77 79 80 78 75 73 68 63 57 52 47 50 53 50 45 42 68 83 90 99 99 100 100 98 99 99 100 100 98 96 88 58 52 51 49 51 59 66
61 67 71 75 82 88 86 82 79 74 73 72 70 65 59 59 55 60 57 50 44 42 66 83 87 95 100 100 100 99 100 98 100 100 98 95 89 70 53 48 51 49 61
64 72 79 82 89 94 98 97 87 82 78 74 71 71 68 63 63 62 57 54 50 48 61 76 78 87 88 97 100 100 99 100 94 100 99 99 96 92 84 63 51 58 57
63 75 83 86 89 90 95 98 99 98 83 81 83 84 78 73 70 63 58 54 52 60 73 75 77 81 90 93 99 97 98 100 100 100 100 100 99 92 90 86 77 65 68
66 75 82 88 88 87 99 99 95 99 90 88 91 81 74 69 65 66 67 63 57 62 83 85 84 83 87 89 89 89 92 87 99 100 100 100 92 88 90 86 87 84 74
66 76 83 87 88 87 92 92 94 100 98 96 98 80 78 72 68 67 71 82 82 86 96 96 91 88 86 85 89 86 89 87 82 88 97 98 98 99 97 93 92 89 82
69 77 83 86 88 92 91 94 99 100 100 100 100 100 98 95 94 91 88 91 91 99 99 98 91 90 88 83 86 82 82 86 89 83 96 89 88 95 96 94 91 86 85
69 74 81 84 85 87 95 94 99 100 99 93 97 99 98 100 100 100 100 100 100 100 100 96 88 90 93 91 86 83 81 84 82 84 82 74 93 94 90 93 90 89 85
68 71 77 81 84 85 88 91 94 97 99 99 91 94 92 93 98 98 98 98 98 98 98 100 100 100 99 99 96 91 89 78 69 74 78 74 73 74 81 83 98 100 94
Wind_Speed
4 5 1 4 6 7 7 8 8 8 7 7 7 7 6 6 5 5 5 4 5 6 6 6 5 4 6 8 8 8 8 8 8 8 10 10 11 11 10 9 10 9 10
9 5 3 3 6 6 7 7 7 7 6 6 6 6 6 6 5 5 5 6 6 6 7 6 5 5 6 8 8 9 8 8 8 8 9 8 9 10 8 8 9 8 9
9 5 5 4 6 5 6 6 7 7 6 5 5 5 5 5 5 5 6 6 6 6 6 5 7 6 7 8 6 7 8 9 9 9 8 7 8 7 5 5 7 8 8
11 6 1 1 4 4 5 6 6 6 6 4 5 5 5 5 5 5 6 7 7 7 6 6 6 5 5 5 6 7 8 9 9 7 6 6 7 7 2 5 6 7 7
9 8 7 3 2 2 4 5 6 6 6 6 5 5 5 4 4 4 5 6 7 5 9 6 4 6 5 6 6 6 6 8 9 8 7 7 7 4 4 5 5 6 7
10 14 10 5 2 1 2 4 5 7 8 7 7 7 5 5 5 6 5 6 7 6 10 7 4 6 8 8 8 8 7 7 8 8 8 7 5 4 4 4 4 5 6
11 13 13 9 5 1 1 4 5 7 8 9 9 9 9 6 7 8 8 8 8 8 9 8 6 7 9 10 11 10 9 9 8 9 7 6 6 5 5 5 5 5 5
12 12 11 10 10 7 4 3 5 6 8 9 10 11 11 10 9 8 10 10 11 11 11 11 9 8 10 12 14 12 10 9 11 12 10 9 7 6 7 6 6 6 6
11 10 11 10 9 8 8 6 4 6 8 9 10 11 12 13 12 12 11 11 13 14 14 14 13 11 11 12 16 15 13 11 11 13 13 12 10 9 9 9 8 7 7
10 12 12 11 10 8 7 7 6 5 7 9 11 11 13 15 15 15 15 14 13 15 16 16 15 14 13 14 16 18 17 15 14 14 15 15 12 11 11 11 10 10 10
11 13 13 13 13 11 10 9 9 8 8 9 11 13 15 16 18 18 18 17 16 16 18 19 19 17 15 16 18 19 20 18 19 18 18 17 16 14 13 14 14 13 12
14 15 15 14 14 14 12 12 11 11 11 11 11 11 14 18 20 20 21 20 19 19 19 21 21 20 19 16 18 20 20 20 23 23 23 19 19 18 16 17 16 15 14
13 14 15 16 17 17 17 17 16 15 14 14 13 13 13 14 19 22 23 23 23 22 19 19 20 20 20 20 22 22 22 21 24 26 27 24 22 22 20 19 20 18 17
13 15 17 17 19 19 20 20 20 20 19 18 17 16 15 15 15 17 21 24 25 25 22 21 20 23 23 23 24 24 24 24 24 27 29 26 26 25 24 22 22 22 20
14 18 19 20 20 20 21 22 23 23 22 22 21 19 17 18 16 15 18 18 22 25 24 21 25 25 27 27 25 26 26 26 27 27 29 29 28 29 27 25 24 23 22
15 18 21 22 22 23 23 22 23 23 24 24 24 23 21 20 20 19 16 19 22 21 24 26 24 24 26 28 29 30 28 26 26 29 31 31 31 31 32 29 27 25 25
16 20 22 23 22 22 22 22 22 21 21 23 23 24 23 23 22 22 21 18 17 21 23 24 25 27 26 25 31 31 30 29 28 29 31 32 34 34 34 35 34 31 31
16 19 21 22 22 22 22 22 21 20 19 20 20 21 21 22 23 23 24 24 23 18 19 23 24 26 27 28 27 28 32 29 29 30 30 32 35 37 37 38 38 37 34
17 19 20 20 20 22 21 20 21 20 19 19 20 21 20 20 21 22 23 24 23 24 20 19 21 23 23 26 29 30 30 32 31 29 28 29 34 39 40 40 40 41 39
15 17 18 19 20 24 21 20 21 20 18 18 17 17 16 17 17 19 20 21 21 23 21 19 21 21 24 26 27 29 32 34 37 34 32 30 29 36 40 44 43 43 43
16 17 20 21 20 22 22 18 17 17 20 20 19 18 17 15 15 15 17 19 20 20 17 17 19 21 22 18 23 24 28 30 31 33 34 34 33 36 36 41 44 44 39
16 16 17 20 19 20 20 18 18 19 19 20 20 19 15 14 12 12 14 15 14 15 14 15 16 19 20 17 13 14 9 14 26 32 32 32 39 38 37 39 37 39 40
15 16 16 16 16 18 18 18 17 15 15 16 21 20 19 14 11 10 10 10 11 13 13 15 16 17 18 15 15 12 5 6 5 12 23 25 26 25 32 35 37 37 36
11 12 12 13 12 13 14 16 14 11 12 14 15 18 17 14 12 11 10 9 9 10 10 12 15 16 15 15 14 15 20 21 7 10 9 14 20 22 27 32 36 37 38
8 11 11 11 11 13 12 13 13 13 13 16 17 17 17 18 18 18 17 16 13 11 10 10 11 12 13 15 16 17 18 19 20 9 12 12 13 22 23 30 37 38 42
6 8 9 11 12 13 12 12 12 13 13 14 16 17 18 18 17 17 17 17 16 15 15 14 13 14 14 16 18 20 20 15 14 11 10 12 13 20 24 26 33 37 34
Wind_Direction
358 344 3 217 189 169 168 166 151 149 150 147 148 151 155 159 161 158 153 146 137 136 147 147 141 113 106 127 130 133 131 139 140 122 121 113 112 110 108 103 100 97 104
347 340 324 213 200 189 182 172 171 164 161 155 152 156 155 153 153 154 153 147 143 141 140 149 138 143 128 143 133 138 157 141 133 133 132 116 119 121 110 101 104 105 107
14 13 320 210 204 201 194 190 183 174 169 167 162 162 160 156 156 159 158 154 157 150 147 131 148 137 135 149 150 153 156 152 141 140 147 134 138 136 118 101 110 114 115
24 30 355 260 209 201 211 214 208 195 192 190 177 180 179 175 171 170 169 168 171 187 172 157 153 158 155 159 153 150 159 164 162 162 159 149 152 153 132 127 125 125 127
43 36 47 83 149 208 230 227 231 222 216 210 213 208 198 198 195 185 181 187 190 192 190 189 199 199 185 176 172 173 170 176 177 167 156 152 153 175 171 147 141 141 142
41 42 48 70 92 168 268 253 247 242 239 238 238 219 221 221 215 209 215 208 215 224 209 209 231 222 215 196 193 197 186 182 180 175 174 185 198 200 185 189 177 156 151
39 36 40 46 59 51 268 272 266 260 258 258 253 249 233 228 228 227 235 231 231 228 208 229 237 224 216 205 206 206 199 206 207 205 209 216 221 221 214 205 185 175 171
36 33 35 39 40 38 17 280 268 273 271 261 261 262 256 249 244 247 243 245 240 236 230 237 240 236 224 215 206 214 216 222 223 222 230 233 241 229 222 215 206 198 193
30 27 25 22 21 24 24 5 313 273 267 269 264 259 254 253 253 250 250 249 247 246 245 242 240 238 232 224 216 219 222 228 229 230 233 239 244 234 228 225 222 215 209
30 23 20 14 7 3 360 353 344 318 281 269 263 259 259 254 253 254 253 249 250 247 249 249 244 243 240 233 226 226 228 232 235 235 237 242 242 237 227 228 228 224 220
26 18 13 7 2 355 347 337 325 316 309 294 276 264 258 259 259 255 254 254 255 253 247 248 248 247 246 242 236 234 234 235 238 241 243 245 242 242 233 231 230 228 226
8 6 2 358 353 347 342 333 324 317 309 301 296 290 274 262 259 261 264 260 259 259 257 248 248 249 249 242 240 235 234 238 242 244 246 246 244 244 240 235 236 233 231
354 350 351 346 343 339 334 330 323 317 312 306 300 295 290 282 264 262 261 262 258 256 254 250 248 246 241 240 245 241 238 239 242 247 248 245 245 245 241 238 242 241 236
350 345 343 338 332 328 323 319 314 310 307 303 300 298 296 291 288 278 271 264 261 258 255 251 249 248 247 245 246 247 245 243 246 248 249 247 245 246 243 239 239 246 240
350 347 344 338 333 326 317 311 306 302 297 294 292 291 291 287 284 281 276 278 276 267 260 254 254 252 252 251 249 249 250 247 246 249 251 248 245 244 244 243 239 241 242
352 348 343 339 337 332 325 318 309 302 297 292 286 283 281 280 280 278 276 273 269 274 272 265 255 252 252 252 253 254 252 253 252 250 251 253 248 245 243 243 242 242 242
348 343 344 342 339 336 331 327 320 312 305 297 292 285 278 274 273 272 270 269 270 271 274 273 266 257 252 249 251 255 255 253 252 253 253 252 254 249 246 245 245 245 240
346 345 344 344 346 344 340 334 328 322 315 309 303 296 286 275 267 270 269 267 266 266 268 270 267 258 257 253 254 251 255 255 254 252 251 252 253 254 252 248 246 247 246
350 348 347 351 352 347 343 340 335 328 322 318 312 305 294 287 274 270 268 267 266 265 265 265 263 260 259 253 250 253 250 253 254 255 254 251 253 255 254 253 250 247 246
353 355 355 354 358 354 343 345 343 337 334 331 330 325 315 292 285 278 276 273 269 266 265 262 263 264 266 264 255 247 248 247 249 250 255 255 255 257 257 255 254 251 248
359 0 4 0 4 355 351 339 338 335 341 345 345 343 336 318 295 286 284 282 273 265 266 267 269 267 267 270 271 271 259 247 245 248 250 253 252 256 255 255 253 249 249
354 354 356 2 1 358 351 344 341 335 338 341 346 345 346 335 326 312 300 293 281 274 272 268 267 270 272 270 268 273 269 254 250 245 245 244 251 252 247 253 251 251 246
352 351 350 355 360 357 354 352 348 338 348 346 344 349 354 352 339 329 319 312 297 285 276 272 263 261 268 270 264 253 285 269 280 231 238 243 250 247 249 252 253 250 248
344 350 351 359 357 351 355 356 357 353 348 346 344 350 358 10 11 5 352 340 322 306 297 288 277 271 272 275 279 269 263 269 281 282 259 260 253 247 247 250 251 253 253
337 350 355 354 358 356 4 1 357 353 355 0 360 359 3 3 8 6 2 358 351 338 320 307 296 288 280 277 270 272 273 271 270 267 280 253 265 257 257 252 249 250 253
322 352 6 10 15 12 12 9 6 359 354 353 359 2 359 358 357 353 354 349 345 334 329 323 313 301 296 286 276 268 261 260 266 272 271 273 273 268 263 263 254 249 252